| time (UTC) | temp C | wind direction | speed KPH | gust KPH | rain 1hr cm | rain 24hr cm | rain mn cm | humidity % | barometer mb |
| 20260507175258 | 15 | 263 | 0.0 | 4.8 | 0.00 | 0.08 | 0.08 | 81 | 1014.5 |
| 20260507174758 | 15 | 263 | 0.0 | 4.8 | 0.00 | 0.08 | 0.08 | 80 | 1014.5 |
| 20260507174258 | 15 | 263 | 0.0 | 4.8 | 0.00 | 0.08 | 0.08 | 79 | 1014.3 |
| 20260507173757 | 16 | 263 | 0.0 | 3.2 | 0.00 | 0.08 | 0.08 | 79 | 1014.3 |
| 20260507173257 | 16 | 263 | 0.0 | 3.2 | 0.00 | 0.08 | 0.08 | 78 | 1014.3 |
| 20260507172258 | 16 | 262 | 1.6 | 3.2 | 0.00 | 0.08 | 0.08 | 73 | 1014.3 |
| 20260507171258 | 16 | 255 | 3.2 | 8.0 | 0.00 | 0.08 | 0.08 | 72 | 1014.2 |
| 20260507170757 | 16 | 229 | 3.2 | 8.0 | 0.00 | 0.08 | 0.08 | 70 | 1014.2 |
| 20260507170257 | 17 | 246 | 3.2 | 8.0 | 0.00 | 0.08 | 0.08 | 70 | 1014.2 |
| 20260507165757 | 17 | 248 | 3.2 | 8.0 | 0.00 | 0.08 | 0.08 | 69 | 1014.0 |
| 20260507165257 | 17 | 52 | 3.2 | 8.0 | 0.00 | 0.08 | 0.08 | 69 | 1014.0 |
| 20260507164757 | 16 | 254 | 3.2 | 8.0 | 0.00 | 0.08 | 0.08 | 68 | 1014.0 |
| 20260507164258 | 16 | 168 | 3.2 | 8.0 | 0.00 | 0.08 | 0.08 | 68 | 1014.0 |
| 20260507163258 | 17 | 200 | 3.2 | 8.0 | 0.00 | 0.08 | 0.08 | 64 | 1014.0 |
| 20260507162757 | 17 | 217 | 3.2 | 8.0 | 0.00 | 0.08 | 0.08 | 62 | 1013.9 |
| 20260507162257 | 17 | 182 | 3.2 | 8.0 | 0.00 | 0.08 | 0.08 | 66 | 1013.9 |
| 20260507161757 | 17 | 174 | 3.2 | 8.0 | 0.00 | 0.08 | 0.08 | 66 | 1013.9 |
| 20260507161258 | 16 | 175 | 3.2 | 8.0 | 0.00 | 0.08 | 0.08 | 68 | 1013.8 |
| 20260507160758 | 16 | 242 | 3.2 | 8.0 | 0.00 | 0.08 | 0.08 | 70 | 1013.8 |
| 20260507155758 | 16 | 173 | 3.2 | 9.7 | 0.00 | 0.08 | 0.08 | 71 | 1013.8 |
| 20260507155257 | 16 | 183 | 3.2 | 9.7 | 0.00 | 0.08 | 0.08 | 72 | 1013.8 |
| 20260507154757 | 16 | 204 | 3.2 | 8.0 | 0.00 | 0.08 | 0.08 | 70 | 1013.8 |
| 20260507154257 | 16 | 214 | 3.2 | 8.0 | 0.00 | 0.08 | 0.08 | 70 | 1013.7 |
| 20260507153757 | 16 | 238 | 3.2 | 8.0 | 0.00 | 0.08 | 0.08 | 73 | 1013.7 |
| 20260507152758 | 16 | 220 | 3.2 | 8.0 | 0.00 | 0.08 | 0.08 | 71 | 1013.7 |
| 20260507152257 | 16 | 200 | 3.2 | 8.0 | 0.00 | 0.08 | 0.08 | 70 | 1013.7 |
| 20260507151757 | 16 | 206 | 3.2 | 8.0 | 0.00 | 0.08 | 0.08 | 70 | 1013.7 |
| 20260507151257 | 16 | 231 | 1.6 | 8.0 | 0.00 | 0.08 | 0.08 | 76 | 1013.8 |
| 20260507150757 | 16 | 231 | 1.6 | 8.0 | 0.00 | 0.08 | 0.08 | 72 | 1013.8 |
| 20260507150258 | 16 | 220 | 3.2 | 8.0 | 0.00 | 0.08 | 0.08 | 73 | 1013.8 |
| 20260507145758 | 16 | 219 | 3.2 | 8.0 | 0.00 | 0.08 | 0.08 | 74 | 1014.0 |
| 20260507145258 | 15 | 224 | 3.2 | 4.8 | 0.00 | 0.08 | 0.08 | 79 | 1014.0 |
| 20260507144257 | 15 | 162 | 3.2 | 8.0 | 0.00 | 0.08 | 0.08 | 84 | 1014.2 |
| 20260507143757 | 14 | 205 | 3.2 | 8.0 | 0.00 | 0.08 | 0.08 | 83 | 1014.2 |
| 20260507142758 | 14 | 240 | 3.2 | 12.9 | 0.03 | 0.08 | 0.08 | 86 | 1014.2 |
| 20260507142258 | 14 | 199 | 3.2 | 12.9 | 0.03 | 0.08 | 0.08 | 88 | 1014.2 |
| 20260507141758 | 13 | 175 | 3.2 | 11.3 | 0.08 | 0.08 | 0.08 | 89 | 1014.2 |
| 20260507140757 | 13 | 163 | 4.8 | 12.9 | 0.08 | 0.08 | 0.08 | 91 | 1014.3 |
| 20260507135258 | 13 | 195 | 3.2 | 4.8 | 0.08 | 0.08 | 0.08 | 93 | 1014.3 |
| 20260507134758 | 13 | 232 | 3.2 | 8.0 | 0.08 | 0.08 | 0.08 | 91 | 1014.3 |
| 20260507134258 | 12 | 236 | 3.2 | 12.9 | 0.08 | 0.08 | 0.08 | 90 | 1014.6 |
| 20260507133758 | 13 | 248 | 3.2 | 12.9 | 0.08 | 0.08 | 0.08 | 89 | 1014.6 |
| 20260507133257 | 13 | 269 | 1.6 | 9.7 | 0.08 | 0.08 | 0.08 | 89 | 1014.6 |
| 20260507132758 | 13 | 217 | 1.6 | 4.8 | 0.05 | 0.05 | 0.05 | 89 | 1015.3 |
| 20260507132257 | 13 | 308 | 1.6 | 4.8 | 0.05 | 0.08 | 0.05 | 88 | 1015.3 |
| 20260507131757 | 13 | 214 | 1.6 | 4.8 | 0.00 | 0.03 | 0.00 | 86 | 1015.3 |
| 20260507131258 | 13 | 342 | 3.2 | 8.0 | 0.00 | 0.03 | 0.00 | 87 | 1015.1 |
| 20260507130758 | 13 | 173 | 3.2 | 8.0 | 0.00 | 0.05 | 0.00 | 86 | 1015.1 |
| 20260507130258 | 13 | 176 | 3.2 | 8.0 | 0.00 | 0.05 | 0.00 | 85 | 1015.1 |
| 20260507125757 | 14 | 205 | 3.2 | 8.0 | 0.00 | 0.08 | 0.00 | 85 | 1014.8 |
| 20260507125258 | 14 | 211 | 1.6 | 8.0 | 0.00 | 0.13 | 0.00 | 84 | 1014.8 |
| 20260507124758 | 14 | 200 | 1.6 | 8.0 | 0.00 | 0.18 | 0.00 | 83 | 1014.8 |
| 20260507124258 | 14 | 177 | 1.6 | 4.8 | 0.00 | 0.18 | 0.00 | 82 | 1014.3 |
| 20260507123758 | 14 | 177 | 1.6 | 4.8 | 0.00 | 0.18 | 0.00 | 83 | 1014.3 |
| 20260507122758 | 14 | 53 | 1.6 | 8.0 | 0.00 | 0.18 | 0.00 | 85 | 1014.2 |
| 20260507122258 | 14 | 32 | 3.2 | 11.3 | 0.00 | 0.20 | 0.00 | 83 | 1014.2 |
| 20260507121757 | 14 | 281 | 3.2 | 11.3 | 0.00 | 0.23 | 0.00 | 81 | 1014.2 |
| 20260507121258 | 15 | 155 | 1.6 | 11.3 | 0.00 | 0.23 | 0.00 | 83 | 1014.2 |
| 20260507120758 | 15 | 178 | 1.6 | 3.2 | 0.00 | 0.23 | 0.00 | 83 | 1014.2 |
| 20260507120258 | 15 | 252 | 3.2 | 8.0 | 0.00 | 0.23 | 0.00 | 83 | 1014.2 |
| 20260507115258 | 15 | 281 | 3.2 | 4.8 | 0.00 | 0.23 | 0.00 | 84 | 1014.1 |
| 20260507114758 | 15 | 332 | 3.2 | 9.7 | 0.00 | 0.23 | 0.00 | 82 | 1014.1 |
| 20260507114257 | 15 | 15 | 1.6 | 9.7 | 0.00 | 0.23 | 0.00 | 81 | 1013.9 |
| 20260507113259 | 16 | 307 | 1.6 | 4.8 | 0.00 | 0.23 | 0.00 | 76 | 1013.9 |
| 20260507112257 | 16 | 273 | 3.2 | 3.2 | 0.00 | 0.23 | 0.00 | 76 | 1013.8 |
| 20260507111758 | 16 | 155 | 3.2 | 9.7 | 0.00 | 0.23 | 0.00 | 77 | 1013.8 |
| 20260507110758 | 17 | 318 | 3.2 | 9.7 | 0.00 | 0.25 | 0.00 | 75 | 1013.4 |
| 20260507110258 | 17 | 231 | 3.2 | 8.0 | 0.00 | 0.25 | 0.00 | 77 | 1013.4 |
| 20260507105758 | 17 | 284 | 3.2 | 8.0 | 0.00 | 0.28 | 0.00 | 76 | 1013.6 |
| 20260507105258 | 17 | 181 | 3.2 | 8.0 | 0.00 | 0.28 | 0.00 | 71 | 1013.6 |
| 20260507104258 | 17 | 278 | 3.2 | 8.0 | 0.00 | 0.28 | 0.00 | 69 | 1013.7 |
| 20260507103758 | 17 | 175 | 3.2 | 8.0 | 0.00 | 0.28 | 0.00 | 70 | 1013.7 |
| 20260507103258 | 17 | 235 | 3.2 | 8.0 | 0.00 | 0.28 | 0.00 | 70 | 1013.7 |
| 20260507102758 | 17 | 222 | 3.2 | 8.0 | 0.00 | 0.28 | 0.00 | 73 | 1013.9 |
| 20260507102258 | 17 | 302 | 3.2 | 8.0 | 0.00 | 0.28 | 0.00 | 70 | 1013.9 |
| 20260507101758 | 17 | 181 | 3.2 | 8.0 | 0.00 | 0.28 | 0.00 | 71 | 1013.9 |
| 20260507101258 | 16 | 200 | 3.2 | 8.0 | 0.00 | 0.28 | 0.00 | 74 | 1014.0 |
| 20260507100758 | 16 | 177 | 3.2 | 9.7 | 0.00 | 0.28 | 0.00 | 73 | 1014.0 |
| 20260507100300 | 16 | 325 | 3.2 | 9.7 | 0.00 | 0.28 | 0.00 | 73 | 1014.0 |
| 20260507095758 | 16 | 231 | 3.2 | 9.7 | 0.00 | 0.28 | 0.00 | 74 | 1014.1 |
| 20260507094758 | 16 | 171 | 3.2 | 9.7 | 0.00 | 0.28 | 0.00 | 77 | 1014.1 |
| 20260507094258 | 15 | 168 | 3.2 | 9.7 | 0.00 | 0.28 | 0.00 | 76 | 1014.1 |
| 20260507093758 | 15 | 183 | 3.2 | 9.7 | 0.00 | 0.28 | 0.00 | 76 | 1014.1 |
| 20260507092758 | 15 | 177 | 3.2 | 9.7 | 0.00 | 0.28 | 0.00 | 78 | 1014.1 |
| 20260507092258 | 15 | 177 | 3.2 | 8.0 | 0.00 | 0.28 | 0.00 | 79 | 1014.1 |
| 20260507091758 | 15 | 187 | 3.2 | 8.0 | 0.00 | 0.28 | 0.00 | 78 | 1014.1 |
| 20260507091258 | 15 | 321 | 3.2 | 8.0 | 0.00 | 0.28 | 0.00 | 79 | 1014.2 |
| 20260507090758 | 15 | 120 | 3.2 | 8.0 | 0.00 | 0.28 | 0.00 | 82 | 1014.2 |
| 20260507085759 | 15 | 191 | 3.2 | 8.0 | 0.00 | 0.28 | 0.00 | 81 | 1014.2 |
| 20260507084758 | 15 | 34 | 0.0 | 3.2 | 0.00 | 0.28 | 0.00 | 82 | 1014.2 |
| 20260507084258 | 14 | 275 | 3.2 | 3.2 | 0.00 | 0.28 | 0.00 | 82 | 1014.3 |
| 20260507083258 | 13 | 241 | 3.2 | 8.0 | 0.00 | 0.28 | 0.00 | 84 | 1014.3 |
| 20260507082758 | 13 | 341 | 3.2 | 8.0 | 0.00 | 0.28 | 0.00 | 84 | 1014.3 |
| 20260507082258 | 13 | 187 | 3.2 | 4.8 | 0.00 | 0.28 | 0.00 | 85 | 1014.3 |
| 20260507081758 | 13 | 290 | 3.2 | 8.0 | 0.00 | 0.28 | 0.00 | 86 | 1014.3 |
| 20260507081258 | 12 | 266 | 3.2 | 8.0 | 0.00 | 0.33 | 0.00 | 86 | 1014.3 |
| 20260507080759 | 12 | 322 | 3.2 | 8.0 | 0.00 | 0.33 | 0.00 | 86 | 1014.3 |
| 20260507080258 | 12 | 273 | 3.2 | 4.8 | 0.00 | 0.36 | 0.00 | 87 | 1014.3 |
| 20260507075258 | 11 | 245 | 1.6 | 4.8 | 0.00 | 0.38 | 0.00 | 88 | 1014.2 |
| 20260507074758 | 11 | 268 | 1.6 | 4.8 | 0.00 | 0.38 | 0.00 | 89 | 1014.2 |
| 20260507074258 | 11 | 283 | 0.0 | 4.8 | 0.00 | 0.41 | 0.00 | 90 | 1014.2 |
| 20260507073759 | 11 | 241 | 0.0 | 3.2 | 0.00 | 0.43 | 0.00 | 92 | 1014.2 |
| 20260507072758 | 11 | 263 | 0.0 | 3.2 | 0.00 | 0.46 | 0.00 | 94 | 1014.2 |
| 20260507072259 | 11 | 263 | 0.0 | 3.2 | 0.00 | 0.46 | 0.00 | 94 | 1014.2 |
| 20260507071803 | 11 | 263 | 0.0 | 3.2 | 0.00 | 0.46 | 0.00 | 94 | 1014.2 |
| 20260507071259 | 11 | 263 | 0.0 | 3.2 | 0.00 | 0.48 | 0.00 | 94 | 1014.1 |
| 20260507070758 | 11 | 263 | 0.0 | 3.2 | 0.00 | 0.51 | 0.00 | 94 | 1014.1 |
| 20260507070258 | 11 | 263 | 0.0 | 3.2 | 0.00 | 0.53 | 0.00 | 94 | 1014.1 |
| 20260507065258 | 11 | 262 | 1.6 | 4.8 | 0.00 | 0.64 | 0.00 | 94 | 1014.2 |
| 20260507064758 | 11 | 262 | 1.6 | 4.8 | 0.00 | 0.66 | 0.00 | 94 | 1014.2 |
| 20260507064259 | 11 | 200 | 0.0 | 4.8 | 0.00 | 0.69 | 0.00 | 94 | 1014.3 |
| 20260507063759 | 11 | 242 | 0.0 | 3.2 | 0.00 | 0.71 | 0.00 | 94 | 1014.3 |
| 20260507063259 | 11 | 186 | 0.0 | 3.2 | 0.00 | 0.74 | 0.00 | 94 | 1014.3 |
| 20260507062758 | 11 | 186 | 0.0 | 3.2 | 0.00 | 0.79 | 0.00 | 94 | 1014.3 |
| 20260507062259 | 11 | 186 | 0.0 | 3.2 | 0.00 | 0.81 | 0.00 | 94 | 1014.3 |
| 20260507061759 | 11 | 184 | 0.0 | 3.2 | 0.00 | 0.86 | 0.00 | 94 | 1014.3 |
| 20260507061258 | 11 | 181 | 0.0 | 3.2 | 0.00 | 0.86 | 0.00 | 94 | 1014.2 |
| 20260507060758 | 11 | 182 | 0.0 | 3.2 | 0.00 | 0.89 | 0.00 | 94 | 1014.2 |
| 20260507060259 | 11 | 181 | 0.0 | 3.2 | 0.00 | 0.94 | 0.00 | 94 | 1014.2 |
| 20260507055759 | 11 | 177 | 0.0 | 3.2 | 0.00 | 0.94 | 0.00 | 94 | 1014.1 |
| 20260507055258 | 11 | 187 | 0.0 | 3.2 | 0.00 | 0.97 | 0.00 | 94 | 1014.1 |
| 20260507054758 | 11 | 234 | 0.0 | 3.2 | 0.00 | 0.99 | 0.00 | 94 | 1014.1 |
| 20260507054259 | 11 | 234 | 3.2 | 3.2 | 0.00 | 0.99 | 0.00 | 94 | 1014.0 |
| 20260507053758 | 11 | 234 | 3.2 | 8.0 | 0.00 | 1.02 | 0.00 | 93 | 1014.0 |
| 20260507053259 | 11 | 234 | 1.6 | 8.0 | 0.00 | 1.02 | 0.00 | 93 | 1014.0 |
| 20260507052758 | 10 | 281 | 1.6 | 4.8 | 0.00 | 1.07 | 0.00 | 92 | 1013.9 |
| 20260507051759 | 10 | 283 | 0.0 | 3.2 | 0.00 | 1.07 | 0.00 | 93 | 1013.9 |
| 20260507051259 | 10 | 283 | 0.0 | 4.8 | 0.00 | 1.07 | 0.00 | 93 | 1013.8 |
| 20260507050300 | 10 | 1 | 1.6 | 3.2 | 0.00 | 1.07 | 0.00 | 93 | 1013.8 |
| 20260507045759 | 10 | 1 | 1.6 | 3.2 | 0.00 | 1.07 | 0.00 | 93 | 1013.7 |
| 20260507045258 | 10 | 354 | 3.2 | 3.2 | 0.00 | 1.07 | 0.00 | 93 | 1013.7 |
| 20260507044758 | 10 | 286 | 3.2 | 8.0 | 0.00 | 1.07 | 0.00 | 93 | 1013.7 |
| 20260507044258 | 10 | 286 | 3.2 | 8.0 | 0.00 | 1.07 | 0.00 | 93 | 1013.5 |
| 20260507043759 | 10 | 264 | 3.2 | 8.0 | 0.00 | 1.07 | 0.00 | 92 | 1013.5 |
| 20260507043258 | 10 | 291 | 3.2 | 8.0 | 0.00 | 1.07 | 0.00 | 92 | 1013.5 |
| 20260507042758 | 10 | 272 | 3.2 | 8.0 | 0.00 | 1.07 | 0.00 | 92 | 1013.3 |
| 20260507041758 | 10 | 285 | 3.2 | 9.7 | 0.00 | 1.07 | 0.00 | 92 | 1013.3 |
| 20260507041259 | 10 | 281 | 1.6 | 9.7 | 0.00 | 1.07 | 0.00 | 92 | 1013.3 |
| 20260507040759 | 10 | 284 | 1.6 | 9.7 | 0.00 | 1.07 | 0.00 | 92 | 1013.3 |
| 20260507040259 | 10 | 357 | 3.2 | 9.7 | 0.00 | 1.07 | 0.00 | 93 | 1013.3 |
| 20260507035759 | 10 | 251 | 3.2 | 9.7 | 0.00 | 1.07 | 0.00 | 92 | 1013.3 |
| 20260507035259 | 10 | 308 | 3.2 | 8.0 | 0.00 | 1.07 | 0.00 | 93 | 1013.3 |
| 20260507034758 | 10 | 281 | 3.2 | 9.7 | 0.00 | 1.07 | 0.00 | 94 | 1013.3 |
| 20260507034259 | 10 | 305 | 3.2 | 9.7 | 0.00 | 1.07 | 0.00 | 94 | 1013.2 |
| 20260507033759 | 10 | 305 | 3.2 | 9.7 | 0.00 | 1.07 | 0.00 | 94 | 1013.2 |
| 20260507033300 | 10 | 274 | 3.2 | 8.0 | 0.00 | 1.07 | 0.00 | 94 | 1013.2 |
| 20260507032758 | 10 | 57 | 3.2 | 8.0 | 0.00 | 1.07 | 0.00 | 94 | 1013.0 |
| 20260507032259 | 10 | 276 | 3.2 | 8.0 | 0.00 | 1.07 | 0.00 | 95 | 1013.0 |
| 20260507031758 | 10 | 351 | 3.2 | 4.8 | 0.00 | 1.07 | 0.00 | 95 | 1013.0 |
| 20260507031259 | 10 | 4 | 3.2 | 8.0 | 0.00 | 1.07 | 0.00 | 95 | 1012.9 |
| 20260507025758 | 10 | 323 | 0.0 | 4.8 | 0.00 | 1.07 | 0.00 | 95 | 1012.8 |
| 20260507025259 | 10 | 282 | 0.0 | 3.2 | 0.00 | 1.07 | 0.00 | 95 | 1012.8 |
| 20260507024759 | 10 | 282 | 0.0 | 3.2 | 0.00 | 1.07 | 0.00 | 95 | 1012.8 |
| 20260507024300 | 10 | 282 | 0.0 | 3.2 | 0.00 | 1.07 | 0.00 | 95 | 1013.1 |
| 20260507023759 | 10 | 296 | 0.0 | 0.0 | 0.00 | 1.07 | 0.00 | 95 | 1013.1 |
| 20260507022759 | 10 | 281 | 0.0 | 3.2 | 0.00 | 1.07 | 0.00 | 95 | 1013.2 |
| 20260507022300 | 10 | 281 | 0.0 | 4.8 | 0.00 | 1.07 | 0.00 | 95 | 1013.2 |
| 20260507021759 | 10 | 281 | 0.0 | 4.8 | 0.00 | 1.07 | 0.00 | 95 | 1013.2 |
| 20260507021258 | 10 | 32 | 0.0 | 4.8 | 0.00 | 1.07 | 0.00 | 95 | 1013.2 |
| 20260507020759 | 10 | 68 | 0.0 | 3.2 | 0.00 | 1.07 | 0.00 | 95 | 1013.2 |
| 20260507015759 | 10 | 68 | 0.0 | 3.2 | 0.00 | 1.07 | 0.00 | 95 | 1013.1 |
| 20260507014800 | 10 | 69 | 1.6 | 8.0 | 0.00 | 1.07 | 0.00 | 95 | 1013.1 |
| 20260507014259 | 10 | 69 | 0.0 | 8.0 | 0.00 | 1.07 | 0.00 | 95 | 1013.0 |
| 20260507013259 | 10 | 28 | 0.0 | 1.6 | 0.00 | 1.07 | 0.00 | 95 | 1013.0 |
| 20260507012759 | 10 | 28 | 0.0 | 3.2 | 0.00 | 1.07 | 0.00 | 95 | 1012.9 |
| 20260507011759 | 11 | 28 | 0.0 | 3.2 | 0.00 | 1.07 | 0.00 | 95 | 1012.9 |
| 20260507010759 | 11 | 51 | 0.0 | 3.2 | 0.00 | 1.07 | 0.00 | 95 | 1012.9 |
| 20260507010259 | 11 | 51 | 0.0 | 3.2 | 0.00 | 1.07 | 0.00 | 95 | 1012.9 |
| 20260507005800 | 11 | 52 | 0.0 | 3.2 | 0.00 | 1.07 | 0.00 | 96 | 1012.9 |
| 20260507004759 | 11 | 52 | 1.6 | 3.2 | 0.00 | 1.07 | 0.00 | 95 | 1012.9 |
| 20260507004259 | 11 | 52 | 0.0 | 4.8 | 0.00 | 1.07 | 0.00 | 95 | 1012.8 |
| 20260507003758 | 11 | 52 | 0.0 | 4.8 | 0.00 | 1.07 | 0.00 | 96 | 1012.8 |
| 20260507003259 | 11 | 274 | 1.6 | 4.8 | 0.00 | 1.07 | 0.00 | 96 | 1012.8 |
| 20260507002759 | 11 | 274 | 1.6 | 4.8 | 0.00 | 1.07 | 0.00 | 96 | 1012.9 |
| 20260507001800 | 11 | 311 | 1.6 | 4.8 | 0.00 | 1.07 | 0.00 | 96 | 1012.9 |
| 20260507000759 | 11 | 339 | 1.6 | 8.0 | 0.00 | 1.07 | 0.00 | 96 | 1012.9 |
| 20260507000259 | 11 | 250 | 0.0 | 4.8 | 0.00 | 1.07 | 0.00 | 95 | 1012.9 |
| 20260506235759 | 11 | 223 | 0.0 | 3.2 | 0.00 | 1.07 | 0.00 | 95 | 1012.8 |
| 20260506235259 | 11 | 223 | 0.0 | 3.2 | 0.00 | 1.07 | 0.00 | 95 | 1012.8 |
| 20260506234800 | 11 | 223 | 0.0 | 3.2 | 0.00 | 1.07 | 0.00 | 95 | 1012.8 |
| 20260506234300 | 11 | 223 | 1.6 | 4.8 | 0.00 | 1.07 | 0.00 | 95 | 1012.8 |
| 20260506233259 | 11 | 282 | 1.6 | 3.2 | 0.00 | 1.07 | 0.00 | 95 | 1012.8 |
| 20260506232759 | 11 | 294 | 1.6 | 3.2 | 0.00 | 1.07 | 0.00 | 95 | 1012.8 |
| 20260506232259 | 11 | 294 | 1.6 | 3.2 | 0.00 | 1.07 | 0.00 | 95 | 1012.8 |
| 20260506231759 | 11 | 240 | 1.6 | 4.8 | 0.00 | 1.07 | 0.00 | 95 | 1012.8 |
| 20260506231259 | 11 | 240 | 0.0 | 4.8 | 0.00 | 1.07 | 0.00 | 95 | 1012.8 |
| 20260506230259 | 11 | 159 | 0.0 | 3.2 | 0.00 | 1.07 | 0.00 | 95 | 1012.8 |
| 20260506225759 | 11 | 158 | 0.0 | 3.2 | 0.00 | 1.07 | 0.00 | 95 | 1012.8 |
| 20260506225259 | 11 | 158 | 1.6 | 3.2 | 0.00 | 1.07 | 0.00 | 95 | 1012.8 |
| 20260506224800 | 11 | 159 | 1.6 | 3.2 | 0.00 | 1.07 | 0.00 | 95 | 1012.8 |
| 20260506224300 | 11 | 159 | 0.0 | 3.2 | 0.00 | 1.07 | 0.00 | 95 | 1012.9 |
| 20260506223759 | 11 | 295 | 0.0 | 3.2 | 0.00 | 1.07 | 0.00 | 95 | 1012.9 |
| 20260506223259 | 11 | 318 | 1.6 | 4.8 | 0.00 | 1.07 | 0.00 | 95 | 1012.9 |
| 20260506221759 | 11 | 274 | 0.0 | 0.0 | 0.00 | 1.07 | 0.00 | 95 | 1012.8 |
| 20260506221259 | 11 | 283 | 3.2 | 4.8 | 0.00 | 1.07 | 0.00 | 95 | 1012.7 |
| 20260506220844 | 11 | 283 | 3.2 | 8.0 | 0.00 | 1.07 | 0.00 | 95 | 1012.7 |
| 20260506220301 | 11 | 283 | 3.2 | 8.0 | 0.00 | 1.07 | 0.00 | 95 | 1012.7 |
| 20260506215800 | 12 | 296 | 3.2 | 4.8 | 0.00 | 1.07 | 1.07 | 95 | 1012.7 |
| 20260506215259 | 12 | 46 | 3.2 | 4.8 | 0.00 | 1.07 | 1.07 | 95 | 1012.7 |
| 20260506214759 | 12 | 60 | 3.2 | 8.0 | 0.00 | 1.07 | 1.07 | 95 | 1012.7 |
| 20260506214259 | 12 | 283 | 0.0 | 8.0 | 0.00 | 1.07 | 1.07 | 95 | 1012.7 |
| 20260506213759 | 12 | 24 | 0.0 | 4.8 | 0.00 | 1.07 | 1.07 | 95 | 1012.7 |
| 20260506213300 | 12 | 161 | 1.6 | 4.8 | 0.00 | 1.07 | 1.07 | 95 | 1012.7 |
| 20260506212759 | 12 | 59 | 1.6 | 4.8 | 0.00 | 1.07 | 1.07 | 95 | 1012.9 |
| 20260506212259 | 12 | 281 | 0.0 | 4.8 | 0.00 | 1.07 | 1.07 | 95 | 1012.9 |
| 20260506211759 | 12 | 182 | 0.0 | 4.8 | 0.00 | 1.07 | 1.07 | 95 | 1012.9 |
| 20260506211259 | 12 | 283 | 0.0 | 0.0 | 0.00 | 1.07 | 1.07 | 95 | 1012.6 |
| 20260506210800 | 12 | 281 | 0.0 | 0.0 | 0.00 | 1.07 | 1.07 | 95 | 1012.6 |
| 20260506210259 | 12 | 281 | 1.6 | 4.8 | 0.00 | 1.07 | 1.07 | 95 | 1012.6 |
| 20260506205759 | 12 | 281 | 1.6 | 4.8 | 0.00 | 1.07 | 1.07 | 95 | 1012.7 |
| 20260506205300 | 12 | 119 | 0.0 | 3.2 | 0.00 | 1.07 | 1.07 | 95 | 1012.7 |
| 20260506204759 | 12 | 261 | 0.0 | 3.2 | 0.00 | 1.07 | 1.07 | 95 | 1012.7 |
| 20260506204259 | 12 | 150 | 3.2 | 8.0 | 0.00 | 1.07 | 1.07 | 95 | 1012.5 |
| 20260506203759 | 12 | 148 | 3.2 | 8.0 | 0.00 | 1.07 | 1.07 | 95 | 1012.5 |
| 20260506203300 | 12 | 268 | 0.0 | 8.0 | 0.00 | 1.07 | 1.07 | 95 | 1012.5 |
| 20260506202759 | 12 | 0 | 0.0 | 3.2 | 0.00 | 1.07 | 1.07 | 95 | 1012.5 |
| 20260506202259 | 12 | 279 | 0.0 | 3.2 | 0.00 | 1.07 | 1.07 | 95 | 1012.5 |
| 20260506201801 | 12 | 340 | 0.0 | 0.0 | 0.00 | 1.07 | 1.07 | 95 | 1012.5 |
| 20260506201259 | 12 | 340 | 1.6 | 0.0 | 0.00 | 1.07 | 1.07 | 95 | 1012.5 |
| 20260506200759 | 12 | 340 | 1.6 | 3.2 | 0.00 | 1.07 | 1.07 | 95 | 1012.5 |
| 20260506200259 | 12 | 268 | 3.2 | 8.0 | 0.00 | 1.07 | 1.07 | 95 | 1012.5 |
| 20260506195759 | 12 | 268 | 3.2 | 8.0 | 0.00 | 1.07 | 1.07 | 95 | 1012.4 |
| 20260506195300 | 12 | 253 | 0.0 | 8.0 | 0.00 | 1.07 | 1.07 | 95 | 1012.4 |
| 20260506194759 | 12 | 279 | 0.0 | 8.0 | 0.00 | 1.07 | 1.07 | 95 | 1012.4 |
| 20260506194259 | 12 | 66 | 0.0 | 0.0 | 0.00 | 1.07 | 1.07 | 94 | 1012.2 |
| 20260506193759 | 12 | 66 | 0.0 | 0.0 | 0.00 | 1.07 | 1.07 | 94 | 1012.2 |
| 20260506193259 | 12 | 66 | 0.0 | 0.0 | 0.00 | 1.07 | 1.07 | 94 | 1012.2 |
| 20260506192759 | 12 | 66 | 0.0 | 0.0 | 0.00 | 1.07 | 1.07 | 94 | 1011.9 |
| 20260506192300 | 12 | 286 | 0.0 | 0.0 | 0.00 | 1.07 | 1.07 | 94 | 1011.9 |
| 20260506191300 | 12 | 287 | 0.0 | 0.0 | 0.00 | 1.07 | 1.07 | 94 | 1012.0 |
| 20260506190759 | 12 | 287 | 0.0 | 0.0 | 0.00 | 1.07 | 1.07 | 94 | 1012.0 |
| 20260506190259 | 12 | 287 | 0.0 | 0.0 | 0.00 | 1.07 | 1.07 | 94 | 1012.0 |
| 20260506185759 | 12 | 287 | 0.0 | 0.0 | 0.00 | 1.07 | 1.07 | 94 | 1011.9 |
| 20260506185300 | 13 | 287 | 0.0 | 0.0 | 0.00 | 1.07 | 1.07 | 94 | 1011.9 |
| 20260506184759 | 13 | 287 | 0.0 | 0.0 | 0.00 | 1.07 | 1.07 | 94 | 1011.9 |
| 20260506184300 | 13 | 287 | 0.0 | 0.0 | 0.00 | 1.07 | 1.07 | 94 | 1011.8 |
| 20260506183800 | 13 | 287 | 0.0 | 0.0 | 0.00 | 1.07 | 1.07 | 94 | 1011.8 |
| 20260506182800 | 13 | 287 | 0.0 | 0.0 | 0.00 | 1.07 | 1.07 | 94 | 1011.6 |
| 20260506182300 | 13 | 287 | 0.0 | 0.0 | 0.00 | 1.07 | 1.07 | 94 | 1011.6 |
| 20260506181800 | 13 | 287 | 0.0 | 0.0 | 0.00 | 1.07 | 1.07 | 94 | 1011.6 |
| 20260506181300 | 13 | 287 | 0.0 | 0.0 | 0.00 | 1.07 | 1.07 | 94 | 1011.4 |
| 20260506180300 | 13 | 287 | 0.0 | 0.0 | 0.00 | 1.07 | 1.07 | 93 | 1011.4 |
| 20260506175759 | 13 | 3 | 0.0 | 0.0 | 0.00 | 1.07 | 1.07 | 93 | 1011.4 |